BSAT-4B

Last updated on Fri Dec 19 2025 00:02:53 GMT+0000 (Coordinated Universal Time)

1 46112U 20056A 25351.86233463 -.00000325 00000+0 00000+0 0 9997 2 46112 0.0507 156.1254 0001536 32.7160 318.1774 1.00272044 19579
UTC large
Height (km)
Speed (km/s)
/
Latitude / Longitude
Inclination (degrees)
Orbital Period (minutes)
Azimuth
Elevation
Range (km)
Doppler Factor

Next 0 passes for location: London (51.5072 / 0.1276)

Sorry there are no passes over London.